Change the Weather History Date:

Thursday, February 14, 2013

  Actual Average (KHGR) Record (KHGR)
Temperature  
Mean Temperature 39 °F 33 °F  
Max Temperature 46 °F 41 °F 57 °F (2011)
Min Temperature 32 °F 26 °F 10 °F (2015)
Degree Days  
Heating Degree Days 26 32  
Month to date heating degree days 456  
Since 1 July heating degree days 3480  
Cooling Degree Days 0 0  
Month to date cooling degree days 0  
Year to date cooling degree days 0  
Moisture  
Dew Point 27 °F    
Average Humidity 67    
Maximum Humidity 87    
Minimum Humidity 47    
Precipitation  
Precipitation 0.01 in 0.09 in 0.68 in (2007)
Month to date precipitation 1.29  
Year to date precipitation 3.97  
Sea Level Pressure  
Sea Level Pressure 29.92 in    
Wind  
Wind Speed 2 mph (WSW)    
Max Wind Speed 7 mph    
Max Gust Speed -    
Visibility 8 miles    
Events Snow    
T = Trace of Precipitation, MM = Missing Value Source: NWS Daily Summary

Daily Weather History Graph

Daily Weather History Graph

Search for Another Location

Airport or City:

Trip Planner

Search our weather history database for the weather conditions in past years. The results will help you decide how hot, cold, wet, or windy it might be!

Date:

Astronomy

Feb. 14, 2013 Rise Set
Actual Time 7:03 AM EST 5:45 PM EST
Civil Twilight 6:35 AM EST 6:12 PM EST
Nautical Twilight 6:03 AM EST 6:44 PM EST
Astronomical Twilight 5:32 AM EST 7:15 PM EST
Moon 9:04 AM EST (2/14) 10:45 PM EST (2/14)
Length of Visible Light 11h 37m
Length of Day
10h 42m
Waxing Crescent, 21% of the Moon is Illuminated
Feb 14
Waxing Crescent
Feb 17
First Quarter
Feb 25
Full
Mar 4
Last Quarter
Mar 11
New

Hourly Weather History & Observations

Time (EST) Temp. Windchill Dew Point Humidity Pressure Visibility Wind Dir Wind Speed Gust Speed Precip Events Conditions
12:33 AM 33.8 °F - 30.2 °F 87% 29.75 in 2.5 mi Calm Calm - 0.00 in Snow Light Snow
1:26 AM 33.8 °F - 30.2 °F 87% 29.77 in 4.0 mi Calm Calm - N/A   Overcast
1:53 AM 34.0 °F 29.8 °F 30.0 °F 85% 29.81 in 4.0 mi West 4.6 mph - N/A   Mostly Cloudy
2:35 AM 33.8 °F 29.6 °F 30.2 °F 87% 29.79 in 4.0 mi Variable 4.6 mph - N/A   Mostly Cloudy
2:53 AM 34.0 °F - 30.0 °F 85% 29.83 in 4.0 mi Calm Calm - N/A   Scattered Clouds
4:53 AM 34.0 °F 31.0 °F 27.0 °F 75% 29.89 in 8.0 mi SE 3.5 mph - N/A   Clear
5:53 AM 32.0 °F 28.7 °F 24.1 °F 73% 29.92 in 8.0 mi Variable 3.5 mph - N/A   Clear
7:53 AM 32.0 °F - 23.0 °F 69% 29.97 in 7.0 mi Calm Calm - N/A   Clear
9:53 AM 36.0 °F 33.3 °F 21.9 °F 57% 29.99 in 9.0 mi Variable 3.5 mph - N/A   Clear
11:00 AM 37.4 °F - 24.8 °F 60% 29.96 in 9.0 mi Calm Calm - N/A   Clear
11:53 AM 39.9 °F 36.7 °F 25.0 °F 55% 29.99 in 10.0 mi West 4.6 mph - 0.01 in   Clear
1:53 PM 45.0 °F - 27.0 °F 49% 29.95 in 10.0 mi Calm Calm - N/A   Clear
2:53 PM 46.0 °F 42.5 °F 28.0 °F 50% 29.94 in 10.0 mi WSW 6.9 mph - N/A   Clear
3:53 PM 46.0 °F 43.1 °F 27.0 °F 47% 29.96 in 10.0 mi SW 5.8 mph - N/A   Clear
4:53 PM 46.0 °F - 27.0 °F 47% 29.95 in 10.0 mi Calm Calm - N/A   Overcast
5:53 PM 42.1 °F - 28.0 °F 58% 29.96 in 10.0 mi Calm Calm - N/A   Clear
6:53 PM 37.9 °F - 28.0 °F 68% 29.98 in 10.0 mi Calm Calm - N/A   Clear
7:53 PM 37.0 °F - 28.0 °F 70% 29.99 in 10.0 mi Calm Calm - N/A   Scattered Clouds
8:53 PM 35.1 °F - 27.0 °F 72% 29.99 in 10.0 mi Calm Calm - N/A   Clear
9:53 PM 33.1 °F - 25.0 °F 72% 29.99 in 7.0 mi Calm Calm - N/A   Partly Cloudy
10:53 PM 33.1 °F - 25.0 °F 72% 29.98 in 9.0 mi Calm Calm - N/A   Scattered Clouds
11:53 PM 37.9 °F 33.5 °F 25.0 °F 60% 29.97 in 10.0 mi Variable 5.8 mph - N/A   Clear